[[{"header":{"parameterUnit":"m.s-1","parameterCategory":1,"la1":30.2991,"la2":30.254,"lo1":-89.0895,"lo2":-89.0444,"dy":0.0017,"dx":0.0017,"nx":28,"ny":28,"refTime":"2024-08-09T15:00:00:Z","depth":0,"parameterNumber":2,"parameterNumberName":"U-component_of_WINDS"},"data":[0,0,0,0,0,0,0,0,0,0,0,0,0,0,0,0,0,0,0,0,0,0,0,0,0,0,0,0,0,0,0,0,0,0,0,0,0,0,0,0,0,0,0,0,0,0,0,0,0,0,0,0,0,0,0,0,0,0,1.0378,1.0378,0,1.0406,1.0406,1.0407,1.0405,1.0405,1.0404,1.0404,1.0436,1.0437,1.0438,0,0,0,0,0,0,0,0,0,0,0,0,0,1.0326,1.0327,1.0378,1.0378,1.0378,1.0406,1.0406,1.0407,1.0405,1.0405,1.0404,1.0404,1.0436,1.0437,1.0439,0,0,0,0,0,0,0,0,0,0,0,0,0,1.0351,1.0328,1.0378,1.0381,1.0381,1.0406,1.0406,1.0407,1.0405,1.0405,1.0404,1.0403,1.0435,1.0437,1.0439,1.0463,0,0,1.0444,1.0445,0,0,0,0,0,0,0,0,1.035,1.0353,1.038,1.0381,1.0381,1.0401,1.04,1.0426,1.0405,1.0396,1.0404,1.0403,1.0425,1.0428,1.0435,1.0464,1.0466,1.0445,1.0446,1.0447,1.0447,0,0,0,0,0,0,0,1.0348,1.0352,1.0389,1.038,1.0381,1.0382,1.0385,1.0405,1.0414,1.0397,1.0397,1.04,1.0425,1.0433,1.0435,1.0466,1.0445,1.0446,1.0447,1.0448,1.0519,1.052,0,0,0,0,0,0,1.0345,1.035,1.0388,1.039,1.0364,1.0384,1.0387,1.0396,1.0414,1.0416,1.0401,1.04,1.043,1.0433,1.0436,1.0467,1.0446,1.0448,1.0449,1.0519,1.052,1.052,0,0,0,0,0,0,1.0344,1.0348,1.0387,1.037,1.0375,1.0385,1.0395,1.0396,1.0404,1.0416,1.0418,1.0406,1.043,1.0434,1.0457,1.0468,1.0449,1.0451,1.0518,1.0519,1.052,1.0529,0,0,0,0,0,0,1.0342,1.0348,1.0356,1.037,1.0376,1.0405,1.0396,1.0397,1.0407,1.0406,1.0422,1.0424,1.0429,1.0454,1.0458,1.0471,1.0452,1.0517,1.0518,1.052,1.0527,1.053,1.0532,0,0,0,0,0,1.0341,1.0358,1.0357,1.0361,1.0386,1.0406,1.0409,1.0414,1.0407,1.0417,1.0425,1.0424,1.0466,1.0456,1.0461,1.0474,1.0516,1.0518,1.052,1.0526,1.0529,1.0532,0,0,0,0,0,0,1.0345,1.0359,1.0358,1.038,1.0392,1.0405,1.0417,1.0417,1.0431,1.043,1.0436,1.044,1.0463,1.0471,1.0459,1.05,1.0491,1.0493,1.0494,1.0497,1.0499,1.0498,1.0454,0,0,0,0,0,1.0349,1.0362,1.0374,1.0393,1.0398,1.0407,1.0415,1.0418,1.0431,1.0436,1.0446,1.0459,1.0476,1.0487,1.0502,1.0528,1.0533,1.054,1.0542,1.0544,1.0547,1.0564,1.0568,1.0526,1.0526,1.0526,0,0,1.0356,1.0366,1.0374,1.0394,1.0403,1.0419,1.0411,1.0427,1.0439,1.0439,1.0461,1.0469,1.0484,1.0509,1.0521,1.0517,1.056,1.0546,1.0548,1.055,1.0566,1.057,1.0573,1.0527,1.0527,1.0527,0,0,1.0378,1.0386,1.0403,1.0412,1.0426,1.0432,1.0436,1.045,1.0455,1.0477,1.0478,1.0493,1.0521,1.0532,1.0542,1.057,1.057,1.0575,1.0588,1.0604,1.0608,1.0611,1.0623,1.0627,1.0577,1.0577,1.0577,0,1.0386,1.0409,1.0412,1.0429,1.0438,1.0437,1.0456,1.0465,1.0484,1.0491,1.0486,1.0522,1.0532,1.0561,1.0568,1.0575,1.0582,1.0574,1.0607,1.061,1.0612,1.0624,1.0629,1.0578,1.0578,1.0578,1.0578,0,1.0419,1.0434,1.0446,1.0464,1.0475,1.0492,1.05,1.0511,1.0513,1.0519,1.0543,1.0556,1.0575,1.0582,1.0584,1.0612,1.0609,1.0605,1.0596,1.0617,1.0628,1.0633,1.0579,1.0579,1.0579,1.0578,0,0,1.0445,1.0464,1.0469,1.0478,1.0494,1.0507,1.0525,1.0543,1.0553,1.0566,1.0583,1.0608,1.0605,1.0615,1.0619,1.0633,1.0657,1.0628,1.0628,1.0635,1.0692,1.0696,1.0701,1.0657,1.0658,1.0659,1.0691,0,1.047,1.0501,1.0505,1.0533,1.0549,1.0549,1.0565,1.0578,1.0585,1.0601,1.0609,1.0627,1.062,1.0628,1.0641,1.0651,1.0669,1.0649,1.0675,1.0676,1.0673,1.0706,1.071,1.074,1.0695,1.0696,1.0697,0,1.0503,1.0517,1.0547,1.0562,1.0569,1.0583,1.0601,1.0615,1.063,1.0635,1.0648,1.065,1.0671,1.066,1.0691,1.0677,1.0689,1.0695,1.0697,1.0701,1.0689,1.0713,1.075,1.0755,1.0703,1.0703,1.0702,0,1.0521,1.0547,1.0569,1.0576,1.0594,1.0605,1.0613,1.0627,1.0638,1.0655,1.0663,1.0681,1.0692,1.0707,1.0715,1.0706,1.0747,1.0736,1.0753,1.0753,1.0762,1.0762,1.0803,1.0766,1.0766,1.0766,1.0766,0,1.055,1.0568,1.0578,1.0591,1.0613,1.0618,1.064,1.0648,1.0661,1.0678,1.0679,1.0695,1.0704,1.0722,1.0729,1.0755,1.0759,1.0765,1.0767,1.0766,1.0766,1.0775,1.0774,1.0768,1.0767,1.0767,1.0767,0,1.0574,1.0581,1.0605,1.062,1.0624,1.064,1.0654,1.0668,1.0675,1.0696,1.0702,1.0714,1.0735,1.0745,1.0771,1.0776,1.0806,1.0805,1.0801,1.0802,1.0819,1.0818,1.0869,1.0878,1.0833,1.0834,1.0834,0,1.0593,1.0607,1.0624,1.0634,1.0643,1.066,1.0671,1.0678,1.069,1.0709,1.0722,1.0743,1.076,1.0795,1.0807,1.0828,1.083,1.0846,1.0833,1.0832,1.0833,1.0833,1.0836,1.0849,1.085,1.085,1.085,0,1.0625,1.0628,1.0644,1.0662,1.0675,1.0689,1.0704,1.0713,1.0722,1.0736,1.0757,1.0771,1.0798,1.082,1.0842,1.0853,1.0854,1.0854,1.086,1.086,1.0857,1.0861,1.081,1.0853,1.0853,1.0853,1.0853,1.0852,1.0649,1.0663,1.0677,1.0695,1.0706,1.072,1.0734,1.0744,1.0761,1.0783,1.0786,1.081,1.0827,1.0857,1.0868,1.0888,1.0885,1.0892,1.0894,1.0896,1.0899,1.0853,1.0892,1.0892,1.0892,1.0892,1.0892,0,1.0684,1.0693,1.0709,1.0729,1.0744,1.0742,1.0758,1.0772,1.0792,1.0807,1.0824,1.0851,1.0872,1.0887,1.0909,1.0923,1.0925,1.0929,1.0929,1.0932,1.0899,1.0893,1.0928,1.0928,1.0928,1.0928,1.0928,1.0928,1.0704,1.0727,1.0732,1.0762,1.0772,1.0794,1.0804,1.0818,1.083,1.0859,1.0876,1.0885,1.0901,1.0925,1.0946,1.095,1.0959,1.0964,1.0969,1.0938,1.0934,1.0931,1.0925,1.0966,1.0966,1.1,1.1,1.1001]},{"header":{"parameterUnit":"m.s-1","parameterCategory":1,"la1":30.2991,"la2":30.254,"lo1":-89.0895,"lo2":-89.0444,"dy":0.0017,"dx":0.0017,"nx":28,"ny":28,"refTime":"2024-08-09T15:00:00:Z","depth":0,"parameterNumber":3,"parameterNumberName":"V-component_of_WINDS"},"data":[0,0,0,0,0,0,0,0,0,0,0,0,0,0,0,0,0,0,0,0,0,0,0,0,0,0,0,0,0,0,0,0,0,0,0,0,0,0,0,0,0,0,0,0,0,0,0,0,0,0,0,0,0,0,0,0,0,0,-3.6865,-3.6865,0,-3.6882,-3.6882,-3.6882,-3.6861,-3.686,-3.6859,-3.6859,-3.6875,-3.6876,-3.6877,0,0,0,0,0,0,0,0,0,0,0,0,0,-3.6811,-3.6812,-3.6865,-3.6865,-3.6865,-3.6882,-3.6882,-3.6882,-3.6861,-3.686,-3.6859,-3.6858,-3.6874,-3.6875,-3.6877,0,0,0,0,0,0,0,0,0,0,0,0,0,-3.6832,-3.6812,-3.6864,-3.6856,-3.6856,-3.6882,-3.6882,-3.6882,-3.6861,-3.686,-3.6859,-3.6858,-3.6874,-3.6875,-3.6877,-3.6911,0,0,-3.6882,-3.6883,0,0,0,0,0,0,0,0,-3.683,-3.6834,-3.6857,-3.6857,-3.6856,-3.6868,-3.6869,-3.6892,-3.6862,-3.6859,-3.6859,-3.6857,-3.6873,-3.6875,-3.6881,-3.6912,-3.6913,-3.6882,-3.6884,-3.6884,-3.6885,0,0,0,0,0,0,0,-3.6829,-3.6833,-3.6871,-3.6858,-3.6857,-3.6851,-3.6853,-3.6873,-3.6872,-3.6859,-3.6858,-3.686,-3.6873,-3.6879,-3.6881,-3.6913,-3.6882,-3.6884,-3.6885,-3.6886,-3.6971,-3.6973,0,0,0,0,0,0,-3.6829,-3.6832,-3.6871,-3.6872,-3.684,-3.6853,-3.6855,-3.6866,-3.6872,-3.6872,-3.6861,-3.6859,-3.6877,-3.6879,-3.6881,-3.6921,-3.6884,-3.6886,-3.6887,-3.697,-3.6972,-3.6973,0,0,0,0,0,0,-3.6828,-3.6832,-3.687,-3.6851,-3.6856,-3.6855,-3.6867,-3.6866,-3.6873,-3.6874,-3.6873,-3.6868,-3.6876,-3.6879,-3.6904,-3.6921,-3.6887,-3.6888,-3.6969,-3.6971,-3.6972,-3.7,0,0,0,0,0,0,-3.6826,-3.6832,-3.6846,-3.6852,-3.6857,-3.6893,-3.6868,-3.6868,-3.6876,-3.6874,-3.688,-3.688,-3.6875,-3.6901,-3.6905,-3.6923,-3.689,-3.6967,-3.697,-3.6972,-3.6997,-3.7003,-3.7007,0,0,0,0,0,-3.6824,-3.6853,-3.6847,-3.6851,-3.6874,-3.6894,-3.6897,-3.6891,-3.6878,-3.6891,-3.6891,-3.688,-3.6919,-3.6904,-3.6908,-3.6926,-3.6966,-3.6969,-3.6972,-3.6995,-3.7002,-3.7007,0,0,0,0,0,0,-3.6848,-3.6853,-3.6847,-3.6878,-3.6886,-3.689,-3.6907,-3.6898,-3.691,-3.6907,-3.6899,-3.6901,-3.6927,-3.6929,-3.6913,-3.6959,-3.694,-3.6944,-3.6956,-3.6962,-3.6967,-3.6965,-3.6891,0,0,0,0,0,-3.6857,-3.6874,-3.6877,-3.6904,-3.6909,-3.6907,-3.6916,-3.6911,-3.6918,-3.6921,-3.6924,-3.6931,-3.6945,-3.6954,-3.6967,-3.6998,-3.6998,-3.7013,-3.7017,-3.7021,-3.7024,-3.704,-3.7046,-3.6982,-3.6982,-3.6982,0,0,-3.6875,-3.688,-3.6891,-3.6909,-3.6915,-3.6931,-3.691,-3.6929,-3.694,-3.6924,-3.6947,-3.6949,-3.6957,-3.6985,-3.6997,-3.6988,-3.7042,-3.7025,-3.7028,-3.7029,-3.7043,-3.7049,-3.7055,-3.6984,-3.6984,-3.6983,0,0,-3.6917,-3.6923,-3.6946,-3.6952,-3.6961,-3.6959,-3.6965,-3.6971,-3.6972,-3.6995,-3.6983,-3.6997,-3.7021,-3.7026,-3.7032,-3.7076,-3.7065,-3.708,-3.7104,-3.7119,-3.7124,-3.7129,-3.7143,-3.7148,-3.7083,-3.7083,-3.7084,0,-3.6939,-3.6964,-3.6959,-3.6978,-3.6985,-3.6972,-3.6994,-3.7,-3.7013,-3.7018,-3.7007,-3.7037,-3.7041,-3.7069,-3.708,-3.7086,-3.7091,-3.7079,-3.7124,-3.7129,-3.7133,-3.7146,-3.7152,-3.7085,-3.7085,-3.7085,-3.7085,0,-3.6989,-3.7007,-3.7024,-3.7036,-3.7046,-3.7067,-3.7064,-3.7074,-3.7069,-3.7068,-3.7092,-3.7096,-3.7109,-3.7116,-3.7111,-3.7144,-3.7137,-3.7126,-3.7106,-3.714,-3.7153,-3.7158,-3.7088,-3.7087,-3.7086,-3.7086,0,0,-3.7046,-3.7055,-3.7061,-3.7066,-3.7075,-3.7088,-3.7108,-3.7121,-3.7129,-3.7138,-3.7154,-3.7174,-3.7164,-3.717,-3.7165,-3.7179,-3.7212,-3.7166,-3.7166,-3.7173,-3.7247,-3.7254,-3.726,-3.7205,-3.7206,-3.7207,-3.7246,0,-3.7086,-3.7121,-3.7117,-3.715,-3.7165,-3.7152,-3.7169,-3.7176,-3.7176,-3.7188,-3.7188,-3.7203,-3.7188,-3.7192,-3.7205,-3.7205,-3.7226,-3.7202,-3.7218,-3.7219,-3.7216,-3.7267,-3.7275,-3.7312,-3.7251,-3.7251,-3.7252,0,-3.7139,-3.715,-3.7184,-3.7189,-3.7196,-3.7211,-3.7222,-3.7235,-3.7242,-3.7241,-3.7248,-3.7241,-3.7259,-3.724,-3.7265,-3.7249,-3.7256,-3.7257,-3.7258,-3.7258,-3.7237,-3.7267,-3.7323,-3.7328,-3.726,-3.7259,-3.7259,0,-3.7175,-3.7198,-3.7221,-3.7226,-3.7234,-3.7244,-3.7248,-3.7254,-3.7262,-3.7271,-3.7276,-3.7288,-3.7294,-3.7303,-3.7298,-3.7285,-3.7324,-3.7305,-3.7323,-3.7323,-3.733,-3.7329,-3.7386,-3.7337,-3.7337,-3.7337,-3.7336,0,-3.722,-3.7241,-3.7238,-3.7252,-3.7275,-3.7269,-3.7292,-3.7294,-3.7299,-3.7313,-3.7303,-3.7316,-3.731,-3.7322,-3.7319,-3.7339,-3.7342,-3.7341,-3.734,-3.7341,-3.7341,-3.7344,-3.7341,-3.7338,-3.7338,-3.7337,-3.7337,0,-3.7264,-3.7262,-3.7287,-3.7292,-3.7293,-3.731,-3.7313,-3.7326,-3.7326,-3.7343,-3.7347,-3.7346,-3.736,-3.7356,-3.7372,-3.7369,-3.7395,-3.7391,-3.7392,-3.7391,-3.7408,-3.7406,-3.7468,-3.7475,-3.7422,-3.7423,-3.7423,0,-3.7292,-3.7308,-3.7314,-3.7323,-3.7327,-3.7341,-3.7349,-3.7345,-3.7353,-3.7362,-3.7373,-3.7387,-3.7397,-3.7419,-3.7419,-3.7431,-3.7426,-3.7447,-3.7427,-3.7428,-3.7425,-3.7423,-3.7424,-3.745,-3.7451,-3.7451,-3.7452,0,-3.7342,-3.734,-3.7352,-3.7364,-3.7374,-3.7383,-3.7391,-3.7399,-3.7394,-3.7405,-3.7419,-3.7427,-3.7442,-3.7455,-3.7465,-3.7468,-3.7459,-3.7458,-3.7463,-3.7463,-3.7463,-3.7462,-3.7401,-3.7456,-3.7456,-3.7456,-3.7455,-3.7455,-3.7377,-3.7391,-3.7397,-3.7411,-3.7416,-3.7424,-3.7436,-3.7437,-3.7449,-3.7461,-3.7458,-3.7473,-3.7479,-3.7492,-3.7496,-3.7508,-3.75,-3.7507,-3.7508,-3.751,-3.7511,-3.7463,-3.751,-3.751,-3.751,-3.751,-3.751,0,-3.7425,-3.7429,-3.7442,-3.7453,-3.7464,-3.7455,-3.7464,-3.7473,-3.7487,-3.7493,-3.7503,-3.7519,-3.7531,-3.7533,-3.7544,-3.7553,-3.7549,-3.7556,-3.7554,-3.7555,-3.7518,-3.7513,-3.7559,-3.7559,-3.7559,-3.7559,-3.7559,-3.7559,-3.7452,-3.7473,-3.7472,-3.7496,-3.7499,-3.7515,-3.752,-3.7527,-3.7531,-3.755,-3.756,-3.7561,-3.7565,-3.7576,-3.7587,-3.7587,-3.759,-3.7599,-3.7597,-3.7562,-3.7558,-3.7553,-3.7547,-3.76,-3.76,-3.7632,-3.7632,-3.7633]}]]